Regional Weather Roundup
Issued by NWS Newport/Morehead, NC

Home | Current Version | Previous Version | Text Only | Print | Product List | Glossary On
Versions: 1 2 3 4 5 6 7 8 9 10 11 12 13 14 15 16 17 18 19 20 21 22 23 24 25 26 27 28 29 30 31 32 33 34 35 36 37 38 39 40 41 42 43 44 45 46 47 48 49 50
000
ASUS42 KMHX 010710
RWRMHX
WEATHER ROUNDUP FOR EASTERN NORTH CAROLINA
NATIONAL WEATHER SERVICE NEWPORT/MOREHEAD CITY NC
300 AM EDT WED OCT 01 2014

NOTE: "FAIR" INDICATES FEW OR NO CLOUDS BELOW 12,000 FEET
WITH NO SIGNIFICANT WEATHER AND/OR OBSTRUCTIONS TO VISIBILITY

NCZ015>017-031-032-045>047-102-103-010800-
NORTH COAST

CITY           SKY/WX    TMP DP  RH WIND       PRES   REMARKS
EDENTON        CLEAR     60  59  97 N5        29.91F
ELIZABETH CITY CLEAR     63  62  97 NW6       29.91F
KITTY HAWK     MOSUNNY   69  65  86 N6        29.88F
MANTEO         CLEAR     68  65  89 N9        29.90S

$$

NCZ045>047-081-094-103-104-010800-
CENTRAL COAST

CITY           SKY/WX    TMP DP  RH WIND       PRES   REMARKS
FRISCO         PTCLDY    67  66  97 N8        29.87F
SWANQUARTER      N/A     63 N/A N/A VRB2      29.85S

$$

NCZ095-097-098-100-101-010800-
SOUTHERN COAST

CITY           SKY/WX    TMP DP  RH WIND       PRES   REMARKS
BEAUFORT       CLEAR     64  64 100 N5        29.88F
CEDAR ISLAND     N/A     70 N/A N/A N16       29.91S
JACKSONVILLE   CLEAR     64  62  93 N5        29.89F
NEWPORT        NOT AVBL
PINEY ISLAND   SUNNY     70  65  84 N9        29.88F
WILMINGTON     CLEAR     64  62  93 NE3       29.89F


$$

NCZ011>013-027>030-043-044-078>080-089-090>093-098-010800-
COASTAL PLAIN

CITY           SKY/WX    TMP DP  RH WIND       PRES   REMARKS
AHOSKIE        CLEAR     57  56  97 CALM      29.93S
CLINTON        CLEAR     61  61 100 CALM      29.91F
ELIZABETHTOWN  CLEAR     63  63 100 CALM      29.91S FOG
GOLDSBORO      CLEAR     61  61  98 CALM      29.90S
GREENVILLE     FOG       59  57  94 CALM      29.93F VSB 1/4
HAVELOCK       CLEAR     65  63  93 NE5       29.90F
KENANSVILLE    CLEAR     61  59  94 CALM      29.92F FOG
KINSTON        CLEAR     60  60  99 CALM      29.91F FOG
NEW BERN       CLEAR     63  59  88 CALM      29.91S FOG
RICHLANDS      CLEAR     61  57  88 CALM      29.90F
ROANOKE RAPIDS NOT AVBL
ROCKY MOUNT    FOG       57  56  96 CALM      29.92F VSB 1/2
WASHINGTON     CLEAR     59  58  98 CALM      29.91F
WHITEVILLE     CLEAR     62  61  96 CALM      29.90F

$$

AMZ130-135-150-152-154-156-158-170-250-252-270-ANZ085-086-088-633-658-670-010800-
MARINE OBSERVATIONS

STATION/POSITION TIME  TEMP    WIND        PRES    WAVE   SWELL
                       AIR SEA DIR/SP/G            HT/PER HT/PER
                 (UTC) (F)     (DEG/KT/KT) (MB)    (FT/S) (FT/S)
CHESAPEAKE LIGHT 0600   70      30/ 13/ 14 1013.7
BUOY 44014       0700   70 72   10/ 16/ 17 1011.3    3/ 4   2/14
DUCK             0700   71 73   10/ 14/ 16 1011.6
2E DUCK          0700                        N/A     2/14   2/14
OREGON INLET     0700   70 73  360/  7/ 12 1011.9
BUOY 44095       0700      73                N/A     3/ 4
20E OREGON INLET NOT AVBL
HATTERAS CG      0700   71 74   10/ 15/ 17 1011.8
DIAMOND BUOY     0700   71     350/ 16/ 19 1010.8    4/ 6   2/ 8
CAPE LOOKOUT     0600   69     360/  9/ 11 1011.9
BEAUFORT LAB     0700   67 75   10/  7/  9 1011.4
30 SE NEW RIVER  0700   73 79   20/ 14/ 16 1011.0    3/ 7   2/ 7
5 SE WRIGHTSVILL 0600   68 75   30/ 10/ 12   N/A
BUOY 41002       0634   78 80   20/ 10/ 12 1008.5    3/ 7   2/ 7
BUOY 41004       0700   77 81  350/  8/ 10 1011.4    3/ 6   3/ 6

$$


USA.gov is the U.S. government's official web portal to all federal, state and local government web resources and services.